Location: West Cummington
(42.4920°N, 72.9680°W)
Time: 06:51:01
(UTC-05:00)

ATLAS 2AS CENTAUR R/B - Visible Passes

Search period start: 11 December 2016 00:00
Search period end: 21 December 2016 00:00
Orbit: 906 x 1306 km, 63.7° (Epoch: 01 December)

Date Brightness Start Highest point End Pass type
(mag) Time Alt. Az. Time Alt. Az. Time Alt. Az.
11 Dec 5.9 05:40:59 10° SE 05:45:29 17° ESE 05:50:08 10° ENE visible
11 Dec 4.3 16:52:19 10° NW 16:59:50 46° WSW 17:06:52 10° S visible
12 Dec 6.1 18:01:27 10° WNW 18:04:42 13° W 18:07:53 10° SW visible
13 Dec 4.7 05:59:21 10° S 06:06:01 36° ESE 06:13:07 10° NE visible
13 Dec 5.6 17:14:45 10° WNW 17:20:30 22° WSW 17:26:00 10° SSW visible
14 Dec 5.4 05:16:05 10° SSE 05:21:40 23° ESE 05:27:30 10° ENE visible
15 Dec 5.8 04:34:05 10° SE 04:37:27 13° E 04:40:53 10° ENE visible
15 Dec 3.5 06:19:29 10° SSW 06:26:57 70° ESE 06:34:59 10° NE visible
16 Dec 4.1 05:35:16 10° S 05:42:20 47° ESE 05:49:54 10° NE visible
16 Dec 5.9 16:52:09 10° WNW 16:56:41 17° WSW 17:01:03 10° SW visible
17 Dec 4.8 04:51:35 10° SSE 04:57:53 30° ESE 05:04:33 10° NE visible
17 Dec 3.1 06:40:44 10° SW 06:48:20 67° NW 06:56:27 10° NNE visible
18 Dec 5.4 04:08:42 10° SE 04:13:35 19° ESE 04:18:40 10° ENE visible
18 Dec 3.1 05:55:51 10° SSW 06:03:26 86° SE 06:11:35 10° NE visible
19 Dec 5.8 03:28:26 10° ESE 03:29:26 10° E 03:30:26 10° E visible
19 Dec 3.6 05:11:22 10° SSW 05:18:43 60° ESE 05:26:37 10° NE visible
20 Dec 4.2 04:27:22 10° S 04:34:10 39° ESE 04:41:26 10° NE visible
20 Dec 3.2 06:17:28 10° SW 06:24:58 55° NW 06:32:57 10° NNE visible
